Date String (YYYY-MM-DD hh:mm:ss) UTC,Instrument flags,Ambient pressure (hPa),Sample flow (lpm),Bypass flow (lpm),Sample temperature (°C),Ambient temperature (°C),ASC tube jacket temperature (°C),LED temperature (°C),Box temperature (°C),Sample RH (%),Span deviation,Mass concentration (μg/m³),Mass concentration (μg/m³),Mass concentration (μg/m³)
DateTimeUTC,F1_M11,P_M11,Q1_M11,Q2_M11,T1_M11,T2_M11,T3_M11,T4_M11,T5_M11,U1_M11,ZSPAN_M11,X0_M11,X2_M11,X1_M11
2021-11-21 05:00:00,,0831.7,5.02,0.00,25.2,24.4,00.0,34.3,27.0,18.7,0000.0,0014.42,0005.42,0004.46
2021-11-21 05:01:00,,0831.7,4.99,0.00,25.2,24.4,00.0,34.3,27.0,18.7,0000.0,0013.52,0005.40,0004.46
2021-11-21 05:02:00,,0831.8,5.00,0.00,25.2,24.4,00.0,34.3,26.9,18.7,0000.0,0012.65,0005.47,0004.49
2021-11-21 05:03:00,,0831.8,5.01,0.00,25.2,24.4,00.0,34.3,27.0,18.7,0000.0,0011.38,0005.48,0004.51
2021-11-21 05:04:00,,0831.7,4.99,0.00,25.2,24.4,00.0,34.3,27.0,18.7,0000.0,0010.54,0005.48,0004.54
2021-11-21 05:05:00,,0831.7,5.00,0.00,25.2,24.4,00.0,34.3,27.0,18.7,0000.0,0010.59,0005.51,0004.57
2021-11-21 05:06:00,,0831.7,4.99,0.00,25.2,24.4,00.0,34.2,26.9,18.7,0000.0,0010.83,0005.48,0004.59
2021-11-21 05:07:00,,0831.7,5.01,0.00,25.2,24.4,00.0,34.2,27.0,18.7,0000.0,0010.84,0005.49,0004.61
2021-11-21 05:08:00,,0831.8,5.00,0.00,25.2,24.4,00.0,34.2,27.0,18.7,0000.0,0010.77,0005.50,0004.61
2021-11-21 05:09:00,,0831.7,5.00,0.00,25.2,24.4,00.0,34.2,27.0,18.7,0000.0,0011.07,0005.48,0004.63
2021-11-21 05:10:00,,0831.7,5.00,0.00,25.2,24.4,00.0,34.2,27.0,18.6,0000.0,0010.98,0005.47,0004.65
2021-11-21 05:11:00,,0831.7,5.00,0.00,25.2,24.4,00.0,34.2,27.0,18.6,0000.0,0011.54,0005.47,0004.67
2021-11-21 05:12:00,,0831.7,5.00,0.00,25.2,24.4,00.0,34.2,26.9,18.5,0000.0,0011.56,0005.49,0004.69
2021-11-21 05:13:00,,0831.7,5.00,0.00,25.2,24.3,00.0,34.2,26.9,18.5,0000.0,0011.96,0005.48,0004.68
2021-11-21 05:14:00,,0831.7,4.99,0.00,25.2,24.3,00.0,34.2,26.9,18.4,0000.0,0012.07,0005.48,0004.66
2021-11-21 05:15:00,,0831.7,5.01,0.00,25.2,24.3,00.0,34.2,26.9,18.4,0000.0,0011.85,0005.46,0004.64
2021-11-21 05:16:00,,0831.8,4.99,0.00,25.1,24.3,00.0,34.2,26.9,18.4,0000.0,0011.83,0005.44,0004.61
2021-11-21 05:17:00,,0831.7,5.01,0.00,25.2,24.3,00.0,34.2,27.0,18.3,0000.0,0011.59,0005.48,0004.59
2021-11-21 05:18:00,,0831.7,4.99,0.00,25.2,24.3,00.0,34.2,27.0,18.3,0000.0,0011.69,0005.51,0004.56
2021-11-21 05:19:00,,0831.8,5.00,0.00,25.1,24.3,00.0,34.2,27.0,18.3,0000.0,0011.89,0005.50,0004.53
2021-11-21 05:20:00,,0831.9,5.01,0.00,25.1,24.3,00.0,34.2,26.9,18.3,0000.0,0011.37,0005.46,0004.49
2021-11-21 05:21:00,,0832.0,5.00,0.00,25.1,24.3,00.0,34.2,26.9,18.3,0000.0,0011.08,0005.42,0004.45
2021-11-21 05:22:00,,0832.0,4.98,0.00,25.1,24.3,00.0,34.2,26.9,18.2,0000.0,0010.45,0005.42,0004.42
2021-11-21 05:23:00,,0832.0,5.01,0.00,25.1,24.3,00.0,34.2,26.9,18.2,0000.0,0010.48,0005.40,0004.39
2021-11-21 05:24:00,,0832.0,5.01,0.00,25.1,24.3,00.0,34.2,26.9,18.1,0000.0,0010.11,0005.38,0004.38
2021-11-21 05:25:00,,0832.0,4.99,0.00,25.1,24.3,00.0,34.2,26.9,18.0,0000.0,0009.79,0005.37,0004.38
2021-11-21 05:26:00,,0832.1,5.01,0.00,25.1,24.3,00.0,34.2,26.9,18.0,0000.0,0009.73,0005.36,0004.38
2021-11-21 05:27:00,,0832.1,4.99,0.00,25.1,24.2,00.0,34.2,26.8,18.0,0000.0,0009.69,0005.33,0004.39
2021-11-21 05:28:00,,0832.2,5.01,0.00,25.1,24.2,00.0,34.2,26.8,18.0,0000.0,0009.46,0005.23,0004.39
2021-11-21 05:29:00,,0832.1,4.98,0.00,25.1,24.2,00.0,34.2,26.9,17.9,0000.0,0009.36,0005.15,0004.38
2021-11-21 05:30:00,,0832.1,5.01,0.00,25.1,24.2,00.0,34.2,26.9,17.9,0000.0,0009.22,0005.12,0004.36
2021-11-21 05:31:00,,0832.1,4.99,0.00,25.1,24.2,00.0,34.2,26.9,17.8,0000.0,0009.30,0005.12,0004.34
2021-11-21 05:32:00,,0832.1,5.01,0.00,25.1,24.2,00.0,34.2,26.9,17.8,0000.0,0009.76,0005.17,0004.34
2021-11-21 05:33:00,,0832.1,4.99,0.00,25.1,24.2,00.0,34.2,26.9,17.8,0000.0,0009.76,0005.16,0004.35
2021-11-21 05:34:00,,0832.0,5.01,0.00,25.1,24.2,00.0,34.1,26.9,17.8,0000.0,0009.88,0005.13,0004.35
2021-11-21 05:35:00,,0832.0,5.00,0.00,25.1,24.2,00.0,34.1,26.8,17.8,0000.0,0010.77,0005.11,0004.33
2021-11-21 05:36:00,,0831.9,4.99,0.00,25.1,24.2,00.0,34.1,26.8,17.8,0000.0,0011.28,0005.10,0004.32
2021-11-21 05:37:00,,0832.0,5.01,0.00,25.1,24.2,00.0,34.1,26.8,17.8,0000.0,0011.45,0005.09,0004.29
2021-11-21 05:38:00,,0832.1,4.99,0.00,25.1,24.2,00.0,34.1,26.8,17.8,0000.0,0011.55,0005.09,0004.28
2021-11-21 05:39:00,,0832.1,5.01,0.00,25.1,24.2,00.0,34.1,26.8,17.8,0000.0,0012.13,0005.17,0004.28
2021-11-21 05:40:00,,0832.1,4.99,0.00,25.1,24.2,00.0,34.1,26.8,17.8,0000.0,0012.61,0005.22,0004.29
2021-11-21 05:41:00,,0832.1,5.01,0.00,25.1,24.2,00.0,34.1,26.8,17.8,0000.0,0012.76,0005.24,0004.31
2021-11-21 05:42:00,,0832.1,5.00,0.00,25.1,24.2,00.0,34.1,26.9,17.8,0000.0,0012.80,0005.27,0004.33
2021-11-21 05:43:00,,0832.1,4.99,0.00,25.1,24.2,00.0,34.1,26.9,17.8,0000.0,0012.55,0005.25,0004.34
2021-11-21 05:44:00,,0832.1,5.01,0.00,25.1,24.2,00.0,34.1,26.9,17.8,0000.0,0012.51,0005.24,0004.33
2021-11-21 05:45:00,,0832.1,4.99,0.00,25.1,24.2,00.0,34.1,26.9,17.7,0000.0,0012.38,0005.28,0004.34
2021-11-21 05:46:00,,0832.1,5.01,0.00,25.1,24.2,00.0,34.1,26.9,17.6,0000.0,0011.72,0005.33,0004.36
2021-11-21 05:47:00,,0832.1,5.00,0.00,25.1,24.3,00.0,34.1,26.9,17.6,0000.0,0012.40,0005.34,0004.38
2021-11-21 05:48:00,,0832.1,5.00,0.00,25.1,24.3,00.0,34.1,26.9,17.6,0000.0,0013.01,0005.40,0004.40
2021-11-21 05:49:00,,0832.1,4.99,0.00,25.1,24.3,00.0,34.1,26.9,17.6,0000.0,0013.02,0005.44,0004.42
2021-11-21 05:50:00,,0832.1,5.01,0.00,25.1,24.3,00.0,34.1,26.9,17.5,0000.0,0013.00,0005.43,0004.44
2021-11-21 05:51:00,,0832.1,4.99,0.00,25.1,24.3,00.0,34.1,26.9,17.5,0000.0,0012.47,0005.41,0004.45
2021-11-21 05:52:00,,0832.1,5.01,0.00,25.1,24.3,00.0,34.1,26.9,17.5,0000.0,0012.33,0005.44,0004.46
2021-11-21 05:53:00,,0832.1,4.99,0.00,25.1,24.3,00.0,34.1,27.0,17.5,0000.0,0012.39,0005.45,0004.48
2021-11-21 05:54:00,,0832.1,5.00,0.00,25.1,24.3,00.0,34.1,27.0,17.5,0000.0,0012.31,0005.46,0004.50
2021-11-21 05:55:00,,0832.1,5.01,0.00,25.1,24.3,00.0,34.1,26.9,17.5,0000.0,0012.38,0005.51,0004.53
2021-11-21 05:56:00,,0832.1,5.00,0.00,25.1,24.3,00.0,34.1,26.9,17.5,0000.0,0012.54,0005.56,0004.55
2021-11-21 05:57:00,,0832.1,4.99,0.00,25.1,24.3,00.0,34.1,26.9,17.5,0000.0,0012.49,0005.58,0004.55
2021-11-21 05:58:00,,0832.2,5.01,0.00,25.1,24.3,00.0,34.1,26.9,17.5,0000.0,0011.28,0005.57,0004.55
2021-11-21 05:59:00,,0832.2,4.99,0.00,25.1,24.2,00.0,34.1,26.9,17.5,0000.0,0010.61,0005.54,0004.56
